Miscellaneous Local Product
Issued by NWS North Platte, NE

Home | Current Version | Previous Version | Text Only | Print | Product List | Glossary On
Versions: 1 2 3 4 5 6 7 8 9 10 11 12 13 14 15 16 17 18 19 20 21 22 23 24 25 26 27 28 29 30 31 32 33 34 35 36 37 38 39 40 41 42 43 44 45 46 47 48 49 50
000
AXUS43 KLBF 091810
MISLBF


WESTERN AND NORTH CENTRAL NEBRASKA HOURLY WEATHER ROUNDUP
NATIONAL WEATHER SERVICE NORTH PLATTE NE
100 PM CDT WED JUL 09 2014

***STATIONS NOT REPORTING VARIABLES SUCH AS SKY/WEATHER OR
PRESSURE ARE PROVIDED BY THE NEBRASKA DEPARTMENT OF
ROADS...RAWS...AND APRS NETWORKS...AND ARE NOT UNDER
NATIONAL WEATHER SERVICE QUALITY CONTROL***

...OBSERVATIONS IN AND NEAR THE EASTERN PANHANDLE OF NEBRASKA...

CITY           SKY/WX    TMP DP  RH WIND       PRES   REMARKS
PINE RIDGE     SUNNY     80  57  45 E3        30.01S
CHADRON        SUNNY     82  58  43 W6        30.00S
ALLIANCE       MOSUNNY   83  54  36 W12       30.01S
SIDNEY         MOSUNNY   86  50  28 S22G28    30.04F
WHITECLAY        N/A     80  56  43 E3          N/A
RUSHVILLE        N/A     87  55  32 SW7         N/A
GORDON           N/A     83  60  45 E16         N/A
CRESCENT LAKE    N/A     86  59  39 S5G14       N/A
LISCO            N/A     84  50  30 CALM        N/A
BIG SPRINGS      N/A     73  58  59 S12         N/A
$$

...OBSERVATIONS IN NORTH CENTRAL NEBRASKA...

CITY           SKY/WX    TMP DP  RH WIND       PRES   REMARKS
VALENTINE      CLOUDY    72  57  59 SE9       30.07F
THEDFORD       PTSUNNY   72  63  73 SE15      30.07F THUNDER
AINSWORTH      PTSUNNY   69  58  69 E5        30.09F THUNDER
O`NEILL        CLOUDY    75  53  45 SW9       30.10R
ORD            CLOUDY    75  57  53 S8        30.07F
BROKEN BOW     CLOUDY    74  58  57 SE12      30.07F
BROWNLEE         N/A     74  51  44 E17         N/A
SPRINGVIEW       N/A     68  63  83 NE3         N/A
ROSE             N/A     72  63  72 NE8         N/A
NEWPORT          N/A     70  60  72 SE7         N/A
SARGENT          N/A     72  60  64 CALM        N/A
COMSTOCK         N/A     80  62  55 S8          N/A
CHAMBERS         N/A     70  57  63 CALM        N/A
$$

...OBSERVATIONS IN SOUTHWEST NEBRASKA AND FAR NORTHEAST COLORADO...

CITY           SKY/WX    TMP DP  RH WIND       PRES   REMARKS
WRAY           FAIR      89  56  33 SE9G17    30.07F
HOLYOKE        FAIR      81  61  50 S17       30.04F
IMPERIAL       CLOUDY    83  58  42 S15       30.05F
OGALLALA         N/A     79  58  48 S21G30    29.98F
NORTH PLATTE   PTSUNNY   83  59  44 S17G24    30.02F
MCCOOK         PTSUNNY   84  56  38 S14       30.07S
LEXINGTON      MOSUNNY   84  58  40 S16       30.07F
PAXTON           N/A     79  61  53 SW12        N/A
SUTHERLAND       N/A     84  61  45 S13         N/A
BRADY            N/A     83  62  48 CALM        N/A
GOTHENBURG       N/A     79  55  42 SE8         N/A
CALLAWAY         N/A     76  63  63 S14         N/A
$$

...NORTH PLATTE AREA...

CITY           SKY/WX    TMP DP  RH WIND       PRES   REMARKS
AIRPORT        PTSUNNY   83  59  44 S17G24    30.02F
INDIAN HILLS     N/A     85  62  46 S12         N/A
$$

...SOME WEATHER OBSERVATIONS FROM AROUND THE REGION...

CITY           SKY/WX    TMP DP  RH WIND       PRES   REMARKS
DENVER         MOSUNNY   91  39  16 VRB3      30.08F
LARAMIE        SUNNY     82  42  24 N9G21     30.22S
CHEYENNE       SUNNY     79  55  43 SE12      30.16S
SCOTTSBLUFF    MOSUNNY   79  60  52 NW9       30.03F
RAPID CITY     SUNNY     76  56  49 SE15      30.06S
PIERRE         SUNNY     79  50  36 VRB3      30.02F
WINNER         FAIR      78  56  46 S14       30.05S
SIOUX FALLS    PTSUNNY   78  57  48 NW5       30.04F
OMAHA          MOSUNNY   80  55  42 CALM      30.06F
GRAND ISLAND   MOSUNNY   81  58  45 S12       30.08F
KANSAS CITY    MOSUNNY   80  61  52 CALM      30.08F
WICHITA        PTSUNNY   84  58  40 VRB3      30.07F
HAYS           MOSUNNY   82  57  42 S16G22    30.08F
LIBERAL        PTSUNNY   82  61  47 S16       30.11F
GOODLAND       SUNNY     82  61  48 S17       30.10R
$$



USA.gov is the U.S. government's official web portal to all federal, state and local government web resources and services.